CAPE
0 0 0 0 45 580 954 936 815 565 394 425 507 579 559 317 72 2 2 1 0 0 0 0 0 0 0 0 0 0 0 0
0 0 0 0 0 353 839 949 858 621 348 284 343 395 421 293 80 1 2 1 1 0 0 0 0 0 0 0 0 0 1 0
0 0 0 0 0 24 648 912 875 687 449 403 253 314 289 273 94 1 2 1 2 1 0 0 0 0 0 0 0 0 0 1
0 0 0 0 0 0 322 893 942 772 589 481 369 264 141 84 54 2 2 2 2 0 0 0 0 0 0 0 0 0 0 1
0 0 0 0 0 0 109 805 1111 935 688 493 514 319 328 162 108 21 1 1 1 1 1 0 0 0 0 0 0 0 0 0
0 0 0 0 0 0 0 163 1024 964 785 520 501 457 384 467 207 70 2 2 1 1 1 1 0 0 0 0 0 0 0 0
0 0 0 0 0 0 0 0 249 881 836 728 591 527 578 459 299 221 36 1 1 2 1 1 0 0 0 0 0 0 0 0
0 0 0 0 0 0 0 0 0 192 892 834 791 581 559 541 473 292 120 1 2 1 1 1 0 0 0 0 0 0 0 0
0 0 0 0 0 0 0 0 0 0 120 973 845 810 607 541 460 420 227 30 1 1 1 0 0 0 0 0 0 0 0 0
0 0 0 0 0 0 0 0 0 0 0 89 1044 994 784 665 649 464 343 190 9 1 1 1 1 1 0 0 0 0 0 0
0 0 0 0 0 0 0 0 0 0 0 26 202 959 1021 851 715 571 435 287 30 1 1 1 1 1 1 0 0 0 0 0
0 0 0 0 0 0 0 0 0 0 0 1 317 500 769 911 835 694 602 455 129 1 1 1 1 1 1 0 0 0 0 0
0 0 0 0 0 0 0 0 0 0 0 1 58 616 877 806 775 771 702 540 116 1 1 1 1 1 2 2 2 1 1 0
0 0 0 0 0 0 0 0 0 0 0 0 0 74 567 991 854 789 649 479 75 1 1 2 2 2 2 2 1 0 0 0
0 0 0 0 0 0 0 0 0 0 0 0 0 1 43 286 527 558 455 297 45 3 2 2 2 2 2 2 2 1 1 1
0 0 0 0 0 0 0 0 2 1 0 0 0 0 0 0 7 8 0 2 2 3 3 1 1 2 3 2 1 1 1 2
0 0 0 0 0 0 0 0 1 2 0 0 0 0 0 0 0 0 0 0 0 1 1 1 2 2 1 0 1 2 2 3
0 0 0 0 0 0 0 0 0 7 0 0 0 1 1 1 0 0 0 0 0 0 0 1 1 1 0 0 0 2 2 1
0 0 0 0 0 0 0 0 0 3 0 0 0 0 1 2 1 0 0 0 0 0 0 0 0 0 0 0 0 2 2 2
CIN
-0 -0 -0 -0 -237 -224 -191 -218 -256 -290 -279 -233 -186 -158 -189 -241 -366 -0 -0 -0 -0 -0 -0 -0 -0 -0 -0 -0 -0 -0 -0 -0
-0 -0 -0 -0 -0 -307 -191 -182 -254 -221 -255 -263 -247 -265 -263 -289 -370 -0 -0 -0 -0 -0 -0 -0 -0 -0 -0 -0 -0 -0 -0 -0
-0 -0 -0 -0 -0 -434 -273 -224 -178 -207 -256 -286 -286 -283 -268 -275 -310 -0 -0 -0 -0 -0 -0 -0 -0 -0 -0 -0 -0 -0 -0 -0
-0 -0 -0 -0 -0 -0 -408 -251 -181 -180 -207 -183 -176 -162 -206 -307 -405 -35 -0 -0 -0 -0 -0 -0 -0 -0 -0 -0 -0 -0 -0 -0
-0 -0 -0 -0 -0 -0 -560 -215 -145 -155 -155 -156 -155 -240 -246 -378 -438 -507 -0 -0 -0 -0 -0 -0 -0 -0 -0 -0 -0 -0 -0 -0
-0 -0 -0 -0 -0 -0 -0 -461 -156 -160 -152 -183 -166 -161 -212 -227 -272 -360 -28 -0 -0 -0 -0 -0 -0 -0 -0 -0 -0 -0 -0 -0
-0 -0 -0 -0 -0 -0 -0 -0 -283 -167 -140 -150 -163 -187 -188 -183 -233 -276 -364 -0 -0 -0 -0 -0 -0 -0 -0 -0 -0 -0 -0 -0
-0 -0 -0 -0 -0 -0 -0 -0 -0 -307 -128 -132 -140 -179 -192 -206 -227 -275 -316 -0 -0 -0 -0 -0 -0 -0 -0 -0 -0 -0 -0 -0
-0 -0 -0 -0 -0 -0 -0 -0 -0 -0 -358 -103 -134 -141 -176 -199 -201 -219 -307 -417 -0 -0 -0 -0 -0 -0 -0 -0 -0 -0 -0 -0
-0 -0 -0 -0 -0 -0 -0 -0 -0 -0 -0 -297 -90 -112 -152 -195 -192 -225 -253 -293 -412 -0 -0 -0 -0 -0 -0 -0 -0 -0 -0 -0
-0 -0 -0 -0 -0 -0 -0 -0 -0 -0 -0 -311 -248 -104 -100 -129 -140 -182 -217 -273 -414 -0 -0 -0 -0 -0 -0 -0 -0 -0 -0 -0
-0 -0 -0 -0 -0 -0 -0 -0 -0 -0 -0 -95 -149 -142 -108 -84 -108 -142 -161 -189 -334 -0 -0 -0 -0 -0 -0 -0 -0 -0 -0 -0
-0 -0 -0 -0 -0 -0 -0 -0 -0 -0 -0 -0 -276 -73 -44 -73 -87 -82 -87 -123 -321 -0 -0 -0 -0 -0 -0 -0 -0 -0 -0 -0
-0 -0 -0 -0 -0 -0 -0 -0 -0 -0 -0 -0 -0 -237 -64 -18 -34 -49 -53 -80 -273 -0 -0 -0 -0 -0 -0 -0 -0 -0 -0 -0
-0 -0 -0 -0 -0 -0 -0 -0 -0 -0 -0 -0 -0 -233 -374 -153 -80 -80 -108 -133 -304 -0 -0 -0 -0 -0 -0 -0 -0 -0 -0 -0
-0 -0 -0 -0 -0 -0 -0 -0 -0 -0 -0 -0 -0 -0 -0 -51 -104 -94 -26 -64 -0 -0 -0 -0 -0 -0 -0 -0 -0 -0 -0 -0
-0 -0 -0 -0 -0 -0 -0 -0 -0 -0 -0 -0 -0 -0 -0 -0 -0 -0 -0 -0 -0 -0 -0 -0 -0 -0 -0 -0 -0 -0 -0 -0
-0 -0 -0 -0 -0 -0 -0 -0 -0 -0 -0 -0 -0 -0 -0 -0 -0 -0 -0 -0 -0 -0 -0 -0 -0 -0 -0 -0 -0 -0 -0 -0
-0 -0 -0 -0 -0 -0 -0 -0 -0 -0 -0 -0 -0 -0 -0 -0 -0 -0 -0 -0 -0 -0 -0 -0 -0 -0 -0 -0 -0 -0 -0 -0
Wind_Speed
28 25 15 33 32 26 24 24 23 23 23 22 21 22 22 21 22 23 23 22 20 20 18 17 16 15 15 14 13 11 10 9
31 29 30 25 24 18 18 21 21 23 23 24 23 24 22 22 22 22 24 25 24 22 21 20 19 19 18 16 14 14 12 11
29 27 28 27 22 16 16 18 18 20 22 24 25 24 24 24 24 24 24 25 26 25 23 22 21 20 19 19 17 15 14 16
24 22 23 25 27 24 18 18 17 19 20 21 24 26 28 28 27 25 24 25 27 28 26 25 24 23 23 23 22 21 19 19
21 22 22 23 24 24 23 20 19 19 20 22 24 25 26 27 27 27 27 27 28 29 29 28 27 26 26 27 25 24 21 24
18 19 20 20 21 23 24 24 21 21 21 22 24 26 26 27 28 28 28 28 30 30 30 30 30 28 28 28 28 28 26 26
16 18 19 21 22 22 23 24 24 23 25 25 26 27 29 30 28 28 28 29 30 31 32 32 31 31 30 30 30 32 30 29
18 19 20 22 23 25 25 25 27 27 25 26 28 29 30 32 32 30 29 29 30 31 32 34 34 34 32 31 31 31 32 33
22 23 26 27 28 29 28 29 29 29 30 29 29 30 32 34 35 34 33 32 30 30 32 33 35 35 35 34 34 33 33 33
25 28 29 28 28 29 31 31 31 31 32 35 34 33 34 34 35 36 37 37 35 31 32 33 34 34 35 35 36 36 35 35
28 28 28 29 30 30 31 32 32 32 32 33 36 35 37 37 37 38 37 37 35 34 33 34 33 33 35 35 39 38 38 36
30 31 29 30 30 31 33 33 33 33 33 34 33 33 36 37 38 39 39 38 37 36 34 36 36 35 36 37 39 38 42 40
32 33 31 31 33 33 33 34 34 34 33 34 34 33 32 34 37 39 37 38 37 37 37 36 37 39 36 37 39 39 41 41
33 34 33 34 34 35 36 36 36 36 35 36 35 34 33 31 33 33 33 35 36 36 37 38 38 40 41 39 38 40 37 36
35 35 36 36 35 35 37 38 36 36 37 37 37 36 35 33 34 33 30 31 34 34 35 39 38 38 39 40 37 33 33 34
37 36 38 39 38 39 39 39 38 35 35 35 36 34 34 31 31 30 32 32 32 32 32 34 37 38 40 32 31 34 31 32
41 41 43 43 41 42 42 41 39 35 34 34 33 32 30 28 28 30 29 30 31 28 28 31 32 35 36 35 32 33 32 33
42 42 43 46 44 42 43 42 40 34 33 31 31 29 29 27 28 28 30 30 28 27 29 31 30 33 28 31 29 29 30 34
41 42 42 43 43 42 43 42 41 37 34 33 30 28 25 23 22 25 24 25 24 26 24 26 30 31 26 24 24 27 25 22
Wind_Direction
285 282 248 214 232 257 249 243 237 234 239 241 241 242 241 240 236 231 226 227 223 228 229 224 218 218 215 213 213 223 222 216
284 280 277 273 266 247 236 241 227 238 234 230 230 222 226 228 233 230 228 228 226 226 230 223 221 218 218 216 214 211 223 213
283 280 276 273 268 249 231 220 230 229 233 228 237 232 235 238 242 239 234 224 222 225 227 224 220 221 218 217 218 219 237 209
284 283 282 280 273 268 253 238 233 228 229 239 243 245 248 246 242 238 224 219 220 220 223 224 222 223 221 217 216 215 228 216
287 283 285 284 281 278 269 258 247 241 235 239 231 229 234 236 236 237 237 228 225 223 225 226 224 227 226 220 222 223 227 216
291 289 288 291 291 286 277 268 257 250 242 238 239 238 243 250 249 245 239 235 230 227 227 227 228 230 228 225 226 226 230 227
293 293 295 293 295 296 291 280 267 256 252 244 243 242 247 250 247 246 243 243 236 232 230 228 228 229 228 226 225 225 229 232
292 294 296 296 297 297 293 291 282 270 256 251 247 247 246 248 248 247 247 244 239 235 229 229 230 228 231 230 229 230 230 232
293 296 297 295 296 296 297 294 290 284 271 257 253 249 252 250 251 252 250 246 245 242 237 238 238 239 239 236 237 237 235 235
296 300 302 300 300 299 297 295 293 289 284 271 261 256 252 253 252 253 253 253 253 247 242 240 240 241 239 239 239 238 240 238
298 301 305 304 302 301 298 297 294 293 292 284 271 263 258 256 256 254 254 255 251 249 246 242 241 241 241 240 243 243 240 240
298 300 303 302 305 303 300 300 299 295 293 291 284 271 265 260 256 256 255 254 251 249 249 248 247 245 246 247 246 245 243 241
300 298 299 303 302 304 305 300 298 299 297 295 290 282 272 265 260 258 256 256 256 250 249 248 248 247 246 245 245 247 246 247
298 297 300 303 305 305 302 301 298 299 298 294 291 288 282 272 265 261 256 255 254 254 251 250 250 249 249 248 248 247 243 238
296 298 302 304 307 308 304 301 300 298 299 296 296 290 284 279 274 267 259 256 255 251 250 251 250 249 251 249 246 246 243 243
301 303 303 305 309 306 303 303 304 303 302 299 297 296 288 283 277 273 269 265 260 257 254 251 251 251 251 247 245 246 245 243
299 301 308 308 305 301 302 301 302 303 302 299 299 294 289 286 283 277 272 270 267 262 258 254 254 255 254 250 249 247 247 243
305 307 308 308 305 303 299 298 298 296 296 296 295 295 291 290 285 282 276 273 270 268 267 263 261 261 249 250 247 253 245 247
309 310 311 311 311 304 300 299 295 291 290 289 289 291 292 295 296 287 282 277 272 269 269 267 265 267 259 248 254 255 250 241